AMC-3 1 24936U 97050A 26118.83263639 -.00000263 00000+0 00000+0 0 9993 2 24936 8.0275 64.6417 0003225 325.8621 54.0412 1.00272196 51948 NSS-11 1 26554U 00059A 26119.09573105 .00000024 00000+0 00000+0 0 9999 2 26554 2.0016 81.9387 0003060 320.7963 24.7965 1.00273512 40792 AMC-6 1 26580U 00067A 26119.20130453 .00000086 00000+0 00000+0 0 9993 2 26580 0.0826 71.1780 0003674 322.7829 120.6313 1.00270755 93405 AMC-11 1 28252U 04017A 26119.24379681 -.00000006 00000+0 00000+0 0 9995 2 28252 0.1630 77.1345 0000785 348.8348 82.8524 0.99092760 80375 AMC-15 1 28446U 04041A 26119.32342087 .00000000 00000+0 00000+0 0 9999 2 28446 0.0203 49.4872 0002571 355.1472 184.0204 1.00270326 78811 NSS-10 1 28526U 05003A 26119.26728358 -.00000251 00000+0 00000+0 0 9998 2 28526 6.3298 71.0358 0003221 325.6791 239.2821 1.00271285 52660 ASTRA 1KR 1 29055U 06012A 26119.27855029 .00000117 00000+0 00000+0 0 9994 2 29055 0.3486 82.6543 0003565 316.9048 296.9781 1.00275070 45207 ASTRA 1L 1 31306U 07016A 26119.26988359 -.00000186 00000+0 00000+0 0 9990 2 31306 1.1969 81.8976 0004880 331.2755 236.7110 1.00272872 44496 ASTRA 4A 1 32299U 07057A 26119.27569028 .00000030 00000+0 00000+0 0 9993 2 32299 0.0334 30.1953 0002498 3.4476 287.6426 1.00271965 51153 ASTRA 1M 1 33436U 08057A 26118.92207675 .00000117 00000+0 00000+0 0 9992 2 33436 0.1705 79.7682 0003901 358.3551 130.1303 1.00269004 45244 NSS-9 1 33749U 09008A 26119.23972346 .00000070 00000+0 00000+0 0 9993 2 33749 1.1368 83.0617 0002218 302.5691 100.9365 1.00272955 63038 SES-7 (PROTOSTAR 2) 1 34941U 09027A 26119.29614370 -.00000347 00000+0 00000+0 0 9993 2 34941 0.0801 78.0389 0000707 219.7547 134.3239 1.00270280 62133 NSS-12 1 36032U 09058A 26119.14343642 .00000068 00000+0 00000+0 0 9994 2 36032 0.0690 65.2178 0005020 311.2218 309.3066 1.00273368 60424 SES-1 1 36516U 10016A 26119.25480352 -.00000117 00000+0 00000+0 0 9995 2 36516 0.0181 295.5296 0002717 104.8347 167.5815 1.00272258 58547 ASTRA 3B 1 36581U 10021A 26119.27941697 .00000136 00000+0 00000+0 0 9999 2 36581 1.3437 84.1047 0003913 322.6997 294.5277 1.00270315 58379 SES-3 1 37748U 11035A 26119.25437019 -.00000103 00000+0 00000+0 0 9992 2 37748 1.2016 83.5646 0003220 318.4234 163.8060 1.00271926 54107 ASTRA 1N 1 37775U 11041A 26119.27855029 .00000117 00000+0 00000+0 0 9990 2 37775 0.1039 52.4249 0005720 9.0465 275.2401 1.00271278 44038 SES-2 1 37809U 11049A 26119.19141948 -.00000199 00000+0 00000+0 0 9996 2 37809 0.0567 77.2470 0002907 320.9648 160.8553 1.00272382 53476 QUETZSAT 1 1 37826U 11054A 26119.25948354 -.00000244 00000+0 00000+0 0 9995 2 37826 0.0564 71.2169 0002731 343.5698 178.8486 1.00271611 49385 SES-4 1 38087U 12007A 26119.05647089 -.00000171 00000+0 00000+0 0 9992 2 38087 0.0252 47.6773 0002741 7.1772 160.5080 1.00270427 51738 SES-5 1 38652U 12036A 26119.27577694 .00000031 00000+0 00000+0 0 9994 2 38652 0.0571 302.0286 0002193 94.1124 285.3572 1.00272153 43961 ASTRA 2F 1 38778U 12051A 26119.28037030 .00000148 00000+0 00000+0 0 9995 2 38778 0.0638 257.5878 0000436 296.8903 151.9056 1.00271975 40647 SES-6 1 39172U 13026A 26119.12415782 -.00000264 00000+0 00000+0 0 9994 2 39172 0.0311 295.8139 0002285 117.6884 167.7745 1.00270936 47239 O3B FM5 1 39188U 13031A 26119.06688052 -.00000025 00000+0 00000+0 0 9997 2 39188 0.1023 359.2431 0003135 27.4217 333.3510 5.00116521234579 O3B FM4 1 39189U 13031B 26119.18618111 -.00000025 00000+0 00000+0 0 9990 2 39189 0.0490 345.9416 0005150 50.9175 323.1760 5.00115239234596 O3B FM2 1 39190U 13031C 26118.85198914 -.00000025 00000+0 00000+0 0 9999 2 39190 0.0466 339.1565 0002789 56.2436 324.6180 5.00116026234648 O3B PFM 1 39191U 13031D 26119.26589789 -.00000025 00000+0 00000+0 0 9990 2 39191 0.0700 0.7634 0007032 51.8731 307.4273 5.00116548234217 ASTRA 2E 1 39285U 13056A 26119.28037030 .00000148 00000+0 00000+0 0 9995 2 39285 0.0719 319.3433 0002157 93.9451 293.4061 1.00270929 45923 SES-8 1 39460U 13071A 26119.29363036 -.00000271 00000+0 00000+0 0 9994 2 39460 0.0206 268.0619 0002670 152.1184 357.7805 1.00270243 43934 ASTRA 5B 1 39617U 14011B 26119.27941697 .00000135 00000+0 00000+0 0 9994 2 39617 0.0633 311.0124 0002669 68.7416 321.5602 1.00271176 44177 O3B FM3 1 40079U 14038A 26118.73286631 -.00000026 00000+0 00000+0 0 9997 2 40079 0.0513 355.2277 0001439 107.5867 257.2011 5.00115647210564 O3B FM7 1 40080U 14038B 26117.47962240 -.00000027 00000+0 00000+0 0 9997 2 40080 0.0540 347.4678 0004185 30.1528 342.3928 5.00115699215341 O3B FM6 1 40081U 14038C 26119.10574154 -.00000025 00000+0 00000+0 0 9991 2 40081 0.0518 351.9792 0002639 44.5811 323.4574 5.00115737215373 O3B FM8 1 40082U 14038D 26118.35946446 -.00000026 00000+0 00000+0 0 9996 2 40082 0.0522 350.9277 0002700 48.3287 320.7624 5.00116047215454 O3B FM10 1 40348U 14083A 26118.98627902 -.00000025 00000+0 00000+0 0 9992 2 40348 0.0382 338.1912 0002660 60.0147 321.8126 5.00115331207431 O3B FM11 1 40349U 14083B 26118.79907163 -.00000026 00000+0 00000+0 0 9993 2 40349 0.0578 359.1153 0002912 24.5117 336.3859 5.00115612207437 O3B FM12 1 40350U 14083C 26117.82667444 -.00000026 00000+0 00000+0 0 9993 2 40350 0.0570 358.8772 0002541 34.6597 326.4781 5.00115909207406 O3B FM9 1 40351U 14083D 26119.05284865 -.00000025 00000+0 00000+0 0 9992 2 40351 0.0589 358.8599 0002711 37.8578 323.3005 5.00115962207614 ASTRA 2G 1 40364U 14089A 26119.28037030 .00000148 00000+0 00000+0 0 9992 2 40364 0.0603 36.5402 0004917 10.9206 298.8981 1.00272796 41472 SES-9 1 41380U 16013A 26119.29614370 -.00000347 00000+0 00000+0 0 9991 2 41380 0.0175 296.1715 0002248 124.3894 11.6016 1.00272313 36945 SES-10 1 42432U 17017A 26119.14889427 -.00000275 00000+0 00000+0 0 9996 2 42432 0.0389 44.6771 0003124 6.6462 152.4908 1.00269901 33261 SES-15 1 42709U 17026A 26119.20333404 .00000057 00000+0 00000+0 0 9996 2 42709 0.0234 331.7175 0000664 49.1390 140.3529 1.00272625 6940 SES-11 (ECHOSTAR 105) 1 42967U 17063A 26118.89746332 .00000000 00000+0 00000+0 0 9993 2 42967 0.0235 59.8546 0003441 339.5266 35.6221 1.00260347 31223 SES-14 1 43175U 18012B 26119.03283838 -.00000282 00000+0 00000+0 0 9997 2 43175 0.0465 54.0293 0000842 359.0751 128.2191 1.00268805 6532 O3B FM15 1 43231U 18024A 26119.11963393 -.00000025 00000+0 00000+0 0 9998 2 43231 0.0511 4.1803 0002637 31.9891 323.8481 5.00115764148570 O3B FM16 1 43232U 18024B 26119.17198523 -.00000025 00000+0 00000+0 0 9990 2 43232 0.0488 8.2677 0002685 26.5847 325.1649 5.00115947148497 O3B FM14 1 43233U 18024C 26118.01342296 -.00000026 00000+0 00000+0 0 9992 2 43233 0.0472 8.3226 0002860 29.5000 322.1966 5.00115737148442 O3B FM13 1 43234U 18024D 26117.47961379 -.00000027 00000+0 00000+0 0 9992 2 43234 0.0552 328.8460 0003544 23.2464 7.9009 5.00115590148529 SES-12 1 43488U 18049A 26119.19886247 .00000000 00000+0 00000+0 0 9991 2 43488 0.0150 49.6772 0001095 271.8124 62.2674 1.00269804 28928 O3B FM20 1 44112U 19020A 26119.03891641 -.00000025 00000+0 00000+0 0 9991 2 44112 0.0531 1.1979 0002581 26.6518 332.1638 5.00115541129116 O3B FM19 1 44113U 19020B 26111.67003593 -.00000022 00000+0 00000+0 0 9992 2 44113 0.0716 348.2754 0003491 26.5306 345.2041 5.00115966128611 O3B FM17 1 44114U 19020C 26117.14719065 -.00000027 00000+0 00000+0 0 9994 2 44114 0.0341 355.3108 0002611 37.9230 326.7813 5.00115502128979 O3B FM18 1 44115U 19020D 26117.89306586 -.00000026 00000+0 00000+0 0 9996 2 44115 0.0536 1.3944 0002731 37.0642 321.5600 5.00115302129137 SES-17 1 49332U 21095A 26119.26147687 -.00000274 00000+0 00000+0 0 9990 2 49332 0.0411 55.3876 0001125 345.2726 203.5984 1.00270047 17360 SES-22 1 52933U 22071A 26119.24726348 .00000102 00000+0 00000+0 0 9990 2 52933 0.0152 276.2322 0001051 109.1936 141.8033 1.00269031 7034 SES-20 1 53960U 22123A 26118.89780999 .00000000 00000+0 00000+0 0 9998 2 53960 0.0185 93.0741 0002025 324.1169 19.7873 1.00264521 13031 SES-21 1 53961U 22123B 26119.02197251 .00000066 00000+0 00000+0 0 9990 2 53961 0.0252 60.7259 0001359 320.0026 73.1962 1.00270151 6725 O3B MPOWER F1 1 54755U 22174A 26119.24431682 -.00000025 00000+0 00000+0 0 9997 2 54755 0.0594 346.9954 0005927 67.9408 78.4204 5.00114831 62919 O3B MPOWER F2 1 54756U 22174B 26118.73713073 -.00000026 00000+0 00000+0 0 9999 2 54756 0.0559 344.7857 0005936 50.8626 324.3909 5.00115376 62967 SES-18 1 55970U 23038A 26119.25437019 -.00000103 00000+0 00000+0 0 9995 2 55970 0.0232 270.0155 0001253 68.6369 227.0311 1.00272209 11612 SES-19 1 55971U 23038B 26119.20135250 .00000085 00000+0 00000+0 0 9991 2 55971 0.0165 289.9800 0001637 104.7069 120.0604 1.00272245 11605 O3B MPOWER F4 1 56367U 23059A 26119.20122420 -.00000025 00000+0 00000+0 0 9994 2 56367 0.0649 2.2220 0007287 47.5648 310.2767 5.00115929 56148 O3B MPOWER F3 1 56368U 23059B 26119.03459973 -.00000025 00000+0 00000+0 0 9992 2 56368 0.0658 2.0993 0006666 38.0259 319.9237 5.00116701 52274 O3B MPOWER F5 1 58346U 23175A 26118.73554670 -.00000026 00000+0 00000+0 0 9996 2 58346 0.0450 11.9729 0004497 38.0621 310.0040 5.00115596 46954 O3B MPOWER F6 1 58347U 23175B 26119.03610191 -.00000025 00000+0 00000+0 0 9991 2 58347 0.0514 6.1718 0004686 22.9198 330.9341 5.00116248 45893 ASTRA 1P (SES-24) 1 60086U 24115A 26119.18517149 .00000118 00000+0 00000+0 0 9996 2 60086 0.0821 44.9029 0003063 276.5608 341.5471 1.00280143 6704 O3B MPOWER F7 1 62362U 24244A 26119.10238592 -.00000025 00000+0 00000+0 0 9990 2 62362 0.0716 357.6303 0006078 38.4070 324.0033 5.00115191 24076 O3B MPOWER F8 1 62363U 24244B 26119.26921732 -.00000025 00000+0 00000+0 0 9993 2 62363 0.0316 315.1171 0006285 73.8770 331.0406 5.00115485 18414 O3B MPOWER F9 1 64866U 25153A 26119.20271419 -.00000025 00000+0 00000+0 0 9997 2 64866 0.0543 15.0567 0005613 47.9209 297.0794 5.00116106 17101 O3B MPOWER F10 1 64867U 25153B 26118.96872794 -.00000025 00000+0 00000+0 0 9993 2 64867 0.0541 10.1323 0002742 262.9858 86.8501 5.00114945 19577